Regional Weather Roundup
Issued by NWS Little Rock, AR

Home | Current Version | Previous Version | Text Only | Print | Product List | Glossary Off
Versions: 1 2 3 4 5 6 7 8 9 10 11 12 13 14 15 16 17 18 19 20 21 22 23 24 25 26 27

000
ASUS44 KLZK 160705
RWRLZK

WEATHER ROUNDUP FOR ARKANSAS
NATIONAL WEATHER SERVICE LITTLE ROCK AR
200 AM CDT WED APR 16 2014

NOTE: "FAIR" INDICATES FEW OR NO CLOUDS BELOW 12,000 FEET WITH NO
SIGNIFICANT WEATHER AND/OR OBSTRUCTIONS TO VISIBILITY.

ARZ001-003-010-029-160800-
NORTHWEST ARKANSAS

CITY           SKY/WX    TMP DP  RH WIND       PRES   REMARKS
FAYETTEVILLE   CLEAR     33  31  92 CALM      30.12F
FORT SMITH     CLEAR     48  28  46 E5        30.14S
HARRISON       CLEAR     36  27  69 E9        30.15F
BENTONVILLE    CLEAR     39  27  60 SE6       30.11S
ROGERS         CLEAR     41  29  62 E9        30.11F
HIGHFILL       CLEAR     41  28  60 SE3       30.10S
$$

ARZ004-005-016-160800-
NORTH CENTRAL ARKANSAS

CITY           SKY/WX    TMP DP  RH WIND       PRES   REMARKS
BATESVILLE     CLEAR     39  30  70 SE5       30.22S
FLIPPIN        CLEAR     39  23  52 SE5       30.19S
MTN HOME       CLEAR     38  27  64 SE5       30.17S
$$

ARZ040-041-160800-
WEST CENTRAL ARKANSAS

CITY           SKY/WX    TMP DP  RH WIND       PRES   REMARKS
MENA           CLEAR     36  34  93 CALM      30.15F
MOUNT IDA      CLEAR     45  32  60 SE10      30.15F
$$

ARZ009-017-025-026-028-160800-
NORTHEAST ARKANSAS

CITY           SKY/WX    TMP DP  RH WIND       PRES   REMARKS
CORNING        FAIR      37  32  81 SE6       30.26S
JONESBORO      CLEAR     36  30  79 CALM      30.25F
NEWPORT        CLEAR     38  33  82 SE7       30.26S
BLYTHEVILLE    CLEAR     40  27  59 SE6       30.27F
$$

ARZ022-023-033-042-044-160800-
CENTRAL ARKANSAS

CITY           SKY/WX    TMP DP  RH WIND       PRES   REMARKS
LITTLE ROCK    CLEAR     41  33  73 SE3       30.23F
N LITTLE ROCK    N/A     42  36  78 SE7       30.23F
JACKSONVILLE   CLEAR     38  35  88 CALM      30.22F
SEARCY         CLEAR     38  35  89 CALM      30.25S
HOT SPRINGS    CLEAR     40  32  73 E6        30.21S
RUSSELLVILLE   CLEAR     43  33  68 VRB3      30.19S
CLINTON        FAIR      36  34  93 CALM      30.23S
$$

ARZ036-160800-
EAST ARKANSAS

CITY           SKY/WX    TMP DP  RH WIND       PRES   REMARKS
WEST MEMPHIS   CLEAR     40  28  62 SE6       30.24F
$$

ARZ050-053-066-070-073-160800-
SOUTHWEST ARKANSAS

CITY           SKY/WX    TMP DP  RH WIND       PRES   REMARKS
ARKADELPHIA    FAIR      42  38  86 E3        30.22S
CAMDEN         CLEAR     37  34  87 MISG      30.22S
TEXARKANA      CLEAR     44  33  65 SE7       30.16F
EL DORADO      CLEAR     38  35  89 CALM      30.21S
DE QUEEN       PTCLDY    37  36  96 CALM      30.15F
$$

ARZ056-057-069-160800-
SOUTHEAST ARKANSAS

CITY           SKY/WX    TMP DP  RH WIND       PRES   REMARKS
PINE BLUFF     CLEAR     40  34  79 SE6       30.23F
STUTTGART      CLEAR     43  30  61 SE6       30.23F
MONTICELLO     CLEAR     39  33  79 CALM      30.22F

$$





USA.gov is the U.S. government's official web portal to all federal, state and local government web resources and services.